GOKTURK 1A

Last updated on Sat Apr 13 2024 01:02:24 GMT+0100 (British Summer Time)

1 41875U 16073A 24103.57147516 .00000626 00000+0 13200-3 0 9990 2 41875 98.1572 358.7115 0001202 82.1205 278.0133 14.62791289392515
UTC large
Height (km)
Speed (km/s)
/
Latitude / Longitude
Inclination (degrees)
Orbital Period (minutes)
Azimuth
Elevation
Range (km)
Doppler Factor

Next 0 passes for location: London (51.5072 / 0.1276)

Sorry there are no passes over London.